owner,sensor,date,latitude,longitude,vertical_datum,sea_water_practical_salinity,qcFlag 
TABS,ioos:station:wmo:42050:1,2011-07-01T00:00:00Z,28.8425,-94.2433,2.0,33.0044,11111222 
TABS,ioos:station:wmo:42050:1,2011-07-01T00:30:00Z,28.8425,-94.2433,2.0,33.023,11111222 
TABS,ioos:station:wmo:42050:1,2011-07-01T01:00:00Z,28.8425,-94.2433,2.0,33.0093,11111222 
TABS,ioos:station:wmo:42050:1,2011-07-01T01:30:00Z,28.8425,-94.2433,2.0,32.9989,11111222 
TABS,ioos:station:wmo:42050:1,2011-07-01T02:00:00Z,28.8425,-94.2433,2.0,32.9989,11111222 
TABS,ioos:station:wmo:42050:1,2011-07-01T02:30:00Z,28.8425,-94.2433,2.0,33.003,11111222 
TABS,ioos:station:wmo:42050:1,2011-07-01T03:00:00Z,28.8425,-94.2433,2.0,32.9929,11111222 
TABS,ioos:station:wmo:42050:1,2011-07-01T03:30:00Z,28.8425,-94.2433,2.0,32.9868,11111222 
TABS,ioos:station:wmo:42050:1,2011-07-01T04:00:00Z,28.8425,-94.2433,2.0,32.9812,11111222 
TABS,ioos:station:wmo:42050:1,2011-07-01T04:30:00Z,28.8425,-94.2433,2.0,32.9655,11111222 
TABS,ioos:station:wmo:42050:1,2011-07-01T05:00:00Z,28.8425,-94.2433,2.0,32.9478,11111222 
TABS,ioos:station:wmo:42050:1,2011-07-01T05:30:00Z,28.8425,-94.2433,2.0,32.9292,11111222 
TABS,ioos:station:wmo:42050:1,2011-07-01T06:00:00Z,28.8425,-94.2433,2.0,32.911,11111222 
TABS,ioos:station:wmo:42050:1,2011-07-01T06:30:00Z,28.8425,-94.2433,2.0,32.7047,11111222 
TABS,ioos:station:wmo:42050:1,2011-07-01T07:00:00Z,28.8425,-94.2433,2.0,32.6402,11111222 
TABS,ioos:station:wmo:42050:1,2011-07-01T07:30:00Z,28.8425,-94.2433,2.0,32.5989,11111222 
TABS,ioos:station:wmo:42050:1,2011-07-01T08:00:00Z,28.8425,-94.2433,2.0,32.554,11111222 
TABS,ioos:station:wmo:42050:1,2011-07-01T08:30:00Z,28.8425,-94.2433,2.0,32.6169,11111222 
TABS,ioos:station:wmo:42050:1,2011-07-01T09:00:00Z,28.8425,-94.2433,2.0,32.6183,11111222 
TABS,ioos:station:wmo:42050:1,2011-07-01T09:30:00Z,28.8425,-94.2433,2.0,32.6871,11111222 
TABS,ioos:station:wmo:42050:1,2011-07-01T10:00:00Z,28.8425,-94.2433,2.0,32.7605,11111222 
TABS,ioos:station:wmo:42050:1,2011-07-01T10:30:00Z,28.8425,-94.2433,2.0,32.8335,11111222 
TABS,ioos:station:wmo:42050:1,2011-07-01T11:00:00Z,28.8425,-94.2433,2.0,32.9111,11111222 
TABS,ioos:station:wmo:42050:1,2011-07-01T11:30:00Z,28.8425,-94.2433,2.0,33.052,11111222 
TABS,ioos:station:wmo:42050:1,2011-07-01T12:00:00Z,28.8425,-94.2433,2.0,33.0654,11111222 
TABS,ioos:station:wmo:42050:1,2011-07-01T12:30:00Z,28.8425,-94.2433,2.0,33.1092,11111222 
TABS,ioos:station:wmo:42050:1,2011-07-01T13:00:00Z,28.8425,-94.2433,2.0,33.1554,11111222 
TABS,ioos:station:wmo:42050:1,2011-07-01T13:30:00Z,28.8425,-94.2433,2.0,33.166,11111222 
TABS,ioos:station:wmo:42050:1,2011-07-01T14:00:00Z,28.8425,-94.2433,2.0,33.1674,11111222 
TABS,ioos:station:wmo:42050:1,2011-07-01T14:30:00Z,28.8425,-94.2433,2.0,33.1761,11111222 
TABS,ioos:station:wmo:42050:1,2011-07-01T15:00:00Z,28.8425,-94.2433,2.0,33.1724,11111222 
TABS,ioos:station:wmo:42050:1,2011-07-01T15:30:00Z,28.8425,-94.2433,2.0,33.1825,11111222 
TABS,ioos:station:wmo:42050:1,2011-07-01T16:00:00Z,28.8425,-94.2433,2.0,33.1905,11111222 
TABS,ioos:station:wmo:42050:1,2011-07-01T16:30:00Z,28.8425,-94.2433,2.0,33.2098,11111222 
TABS,ioos:station:wmo:42050:1,2011-07-01T17:00:00Z,28.8425,-94.2433,2.0,33.1917,11111222 
TABS,ioos:station:wmo:42050:1,2011-07-01T17:30:00Z,28.8425,-94.2433,2.0,33.2153,11111222 
TABS,ioos:station:wmo:42050:1,2011-07-01T18:00:00Z,28.8425,-94.2433,2.0,33.2091,11111222 
TABS,ioos:station:wmo:42050:1,2011-07-01T18:30:00Z,28.8425,-94.2433,2.0,33.2208,11111222 
TABS,ioos:station:wmo:42050:1,2011-07-01T19:00:00Z,28.8425,-94.2433,2.0,33.2079,11111222 
TABS,ioos:station:wmo:42050:1,2011-07-01T19:30:00Z,28.8425,-94.2433,2.0,33.208,11111222 
TABS,ioos:station:wmo:42050:1,2011-07-01T20:00:00Z,28.8425,-94.2433,2.0,33.2074,11111222 
TABS,ioos:station:wmo:42050:1,2011-07-01T20:30:00Z,28.8425,-94.2433,2.0,33.2082,11111222 
TABS,ioos:station:wmo:42050:1,2011-07-01T21:00:00Z,28.8425,-94.2433,2.0,33.2118,11111222 
TABS,ioos:station:wmo:42050:1,2011-07-01T21:30:00Z,28.8425,-94.2433,2.0,33.206,11111222 
TABS,ioos:station:wmo:42050:1,2011-07-01T22:00:00Z,28.8425,-94.2433,2.0,33.2042,11111222 
TABS,ioos:station:wmo:42050:1,2011-07-01T22:30:00Z,28.8425,-94.2433,2.0,33.208,11111222 
TABS,ioos:station:wmo:42050:1,2011-07-01T23:00:00Z,28.8425,-94.2433,2.0,33.2046,11111222 
TABS,ioos:station:wmo:42050:1,2011-07-01T23:30:00Z,28.8425,-94.2433,2.0,33.2035,11111222 
TABS,ioos:station:wmo:42050:1,2011-07-02T00:00:00Z,28.8425,-94.2433,2.0,33.2061,11111222 
TABS,ioos:station:wmo:42050:1,2011-07-02T00:30:00Z,28.8425,-94.2433,2.0,33.2035,11111222 
TABS,ioos:station:wmo:42050:1,2011-07-02T01:00:00Z,28.8425,-94.2433,2.0,33.2028,11111222 
TABS,ioos:station:wmo:42050:1,2011-07-02T01:30:00Z,28.8425,-94.2433,2.0,33.1979,11111222 
TABS,ioos:station:wmo:42050:1,2011-07-02T02:00:00Z,28.8425,-94.2433,2.0,33.1949,11111222 
TABS,ioos:station:wmo:42050:1,2011-07-02T02:30:00Z,28.8425,-94.2433,2.0,33.1916,11111222 
TABS,ioos:station:wmo:42050:1,2011-07-02T03:00:00Z,28.8425,-94.2433,2.0,33.1847,11111222 
TABS,ioos:station:wmo:42050:1,2011-07-02T03:30:00Z,28.8425,-94.2433,2.0,33.184,11111222 
TABS,ioos:station:wmo:42050:1,2011-07-02T04:00:00Z,28.8425,-94.2433,2.0,33.1823,11111222 
TABS,ioos:station:wmo:42050:1,2011-07-02T04:30:00Z,28.8425,-94.2433,2.0,33.1776,11111222 
TABS,ioos:station:wmo:42050:1,2011-07-02T05:00:00Z,28.8425,-94.2433,2.0,33.1748,11111222 
TABS,ioos:station:wmo:42050:1,2011-07-02T05:30:00Z,28.8425,-94.2433,2.0,33.1757,11111222 
TABS,ioos:station:wmo:42050:1,2011-07-02T06:00:00Z,28.8425,-94.2433,2.0,33.1794,11111222 
TABS,ioos:station:wmo:42050:1,2011-07-02T06:30:00Z,28.8425,-94.2433,2.0,33.1861,11111222 
TABS,ioos:station:wmo:42050:1,2011-07-02T07:00:00Z,28.8425,-94.2433,2.0,33.187,11111222 
TABS,ioos:station:wmo:42050:1,2011-07-02T07:30:00Z,28.8425,-94.2433,2.0,33.0796,11111222 
TABS,ioos:station:wmo:42050:1,2011-07-02T08:00:00Z,28.8425,-94.2433,2.0,33.105,11111222 
TABS,ioos:station:wmo:42050:1,2011-07-02T08:30:00Z,28.8425,-94.2433,2.0,33.0272,11111222 
TABS,ioos:station:wmo:42050:1,2011-07-02T09:00:00Z,28.8425,-94.2433,2.0,33.0276,11111222 
TABS,ioos:station:wmo:42050:1,2011-07-02T09:30:00Z,28.8425,-94.2433,2.0,32.9129,11111222 
TABS,ioos:station:wmo:42050:1,2011-07-02T10:00:00Z,28.8425,-94.2433,2.0,32.9578,11111222 
TABS,ioos:station:wmo:42050:1,2011-07-02T10:30:00Z,28.8425,-94.2433,2.0,32.6985,11111222 
TABS,ioos:station:wmo:42050:1,2011-07-02T11:00:00Z,28.8425,-94.2433,2.0,32.6955,11111222 
TABS,ioos:station:wmo:42050:1,2011-07-02T11:30:00Z,28.8425,-94.2433,2.0,32.6629,11111222 
TABS,ioos:station:wmo:42050:1,2011-07-02T12:00:00Z,28.8425,-94.2433,2.0,32.576,11111222 
TABS,ioos:station:wmo:42050:1,2011-07-02T12:30:00Z,28.8425,-94.2433,2.0,32.3363,11111222 
TABS,ioos:station:wmo:42050:1,2011-07-02T13:00:00Z,28.8425,-94.2433,2.0,32.3408,11111222 
TABS,ioos:station:wmo:42050:1,2011-07-02T13:30:00Z,28.8425,-94.2433,2.0,32.3236,11111222 
TABS,ioos:station:wmo:42050:1,2011-07-02T14:00:00Z,28.8425,-94.2433,2.0,32.3079,11111222 
TABS,ioos:station:wmo:42050:1,2011-07-02T14:30:00Z,28.8425,-94.2433,2.0,32.242,11111222 
TABS,ioos:station:wmo:42050:1,2011-07-02T15:00:00Z,28.8425,-94.2433,2.0,32.2212,11111222 
TABS,ioos:station:wmo:42050:1,2011-07-02T15:30:00Z,28.8425,-94.2433,2.0,32.1845,11111222 
TABS,ioos:station:wmo:42050:1,2011-07-02T16:00:00Z,28.8425,-94.2433,2.0,32.1736,11111222 
TABS,ioos:station:wmo:42050:1,2011-07-02T16:30:00Z,28.8425,-94.2433,2.0,32.1409,11111222 
TABS,ioos:station:wmo:42050:1,2011-07-02T17:00:00Z,28.8425,-94.2433,2.0,32.0957,11111222 
TABS,ioos:station:wmo:42050:1,2011-07-02T17:30:00Z,28.8425,-94.2433,2.0,32.0555,11111222 
TABS,ioos:station:wmo:42050:1,2011-07-02T18:00:00Z,28.8425,-94.2433,2.0,32.0419,11111222 
TABS,ioos:station:wmo:42050:1,2011-07-02T18:30:00Z,28.8425,-94.2433,2.0,32.0309,11111222 
TABS,ioos:station:wmo:42050:1,2011-07-02T19:00:00Z,28.8425,-94.2433,2.0,32.0332,11111222 
TABS,ioos:station:wmo:42050:1,2011-07-02T19:30:00Z,28.8425,-94.2433,2.0,32.0325,11111222 
TABS,ioos:station:wmo:42050:1,2011-07-02T20:00:00Z,28.8425,-94.2433,2.0,32.0425,11111222 
TABS,ioos:station:wmo:42050:1,2011-07-02T20:30:00Z,28.8425,-94.2433,2.0,32.0459,11111222 
TABS,ioos:station:wmo:42050:1,2011-07-02T21:00:00Z,28.8425,-94.2433,2.0,32.0508,11111222 
TABS,ioos:station:wmo:42050:1,2011-07-02T21:30:00Z,28.8425,-94.2433,2.0,32.012,11111222 
TABS,ioos:station:wmo:42050:1,2011-07-02T22:00:00Z,28.8425,-94.2433,2.0,32.0082,11111222 
TABS,ioos:station:wmo:42050:1,2011-07-02T22:30:00Z,28.8425,-94.2433,2.0,32.0052,11111222 
TABS,ioos:station:wmo:42050:1,2011-07-02T23:00:00Z,28.8425,-94.2433,2.0,31.9618,11111222 
TABS,ioos:station:wmo:42050:1,2011-07-02T23:30:00Z,28.8425,-94.2433,2.0,31.9972,11111222 
TABS,ioos:station:wmo:42050:1,2011-07-03T00:00:00Z,28.8425,-94.2433,2.0,31.9976,11111222 
TABS,ioos:station:wmo:42050:1,2011-07-03T00:30:00Z,28.8425,-94.2433,2.0,31.996,11111222 
TABS,ioos:station:wmo:42050:1,2011-07-03T01:00:00Z,28.8425,-94.2433,2.0,31.9867,11111222 
TABS,ioos:station:wmo:42050:1,2011-07-03T01:30:00Z,28.8425,-94.2433,2.0,31.9915,11111222 
TABS,ioos:station:wmo:42050:1,2011-07-03T02:00:00Z,28.8425,-94.2433,2.0,31.9965,11111222 
TABS,ioos:station:wmo:42050:1,2011-07-03T02:30:00Z,28.8425,-94.2433,2.0,31.9953,11111222 
TABS,ioos:station:wmo:42050:1,2011-07-03T03:00:00Z,28.8425,-94.2433,2.0,32.0085,11111222 
TABS,ioos:station:wmo:42050:1,2011-07-03T03:30:00Z,28.8425,-94.2433,2.0,32.02,11111222 
TABS,ioos:station:wmo:42050:1,2011-07-03T04:00:00Z,28.8425,-94.2433,2.0,32.0304,11111222 
TABS,ioos:station:wmo:42050:1,2011-07-03T04:30:00Z,28.8425,-94.2433,2.0,32.0551,11111222 
TABS,ioos:station:wmo:42050:1,2011-07-03T05:00:00Z,28.8425,-94.2433,2.0,32.0925,11111222 
TABS,ioos:station:wmo:42050:1,2011-07-03T05:30:00Z,28.8425,-94.2433,2.0,32.2583,11111222 
TABS,ioos:station:wmo:42050:1,2011-07-03T06:00:00Z,28.8425,-94.2433,2.0,32.6513,11111222 
TABS,ioos:station:wmo:42050:1,2011-07-03T06:30:00Z,28.8425,-94.2433,2.0,32.7617,11111222 
TABS,ioos:station:wmo:42050:1,2011-07-03T07:00:00Z,28.8425,-94.2433,2.0,32.765,11111222 
TABS,ioos:station:wmo:42050:1,2011-07-03T07:30:00Z,28.8425,-94.2433,2.0,32.7599,11111222 
TABS,ioos:station:wmo:42050:1,2011-07-03T08:00:00Z,28.8425,-94.2433,2.0,32.7513,11111222 
TABS,ioos:station:wmo:42050:1,2011-07-03T08:30:00Z,28.8425,-94.2433,2.0,32.7585,11111222 
TABS,ioos:station:wmo:42050:1,2011-07-03T09:00:00Z,28.8425,-94.2433,2.0,32.7915,11111222 
TABS,ioos:station:wmo:42050:1,2011-07-03T09:30:00Z,28.8425,-94.2433,2.0,32.8058,11111222 
TABS,ioos:station:wmo:42050:1,2011-07-03T10:00:00Z,28.8425,-94.2433,2.0,32.8086,11111222 
TABS,ioos:station:wmo:42050:1,2011-07-03T10:30:00Z,28.8425,-94.2433,2.0,32.8087,11111222 
TABS,ioos:station:wmo:42050:1,2011-07-03T11:00:00Z,28.8425,-94.2433,2.0,32.8026,11111222 
TABS,ioos:station:wmo:42050:1,2011-07-03T11:30:00Z,28.8425,-94.2433,2.0,32.8066,11111222 
TABS,ioos:station:wmo:42050:1,2011-07-03T12:00:00Z,28.8425,-94.2433,2.0,32.8079,11111222 
TABS,ioos:station:wmo:42050:1,2011-07-03T12:30:00Z,28.8425,-94.2433,2.0,32.8077,11111222 
TABS,ioos:station:wmo:42050:1,2011-07-03T13:00:00Z,28.8425,-94.2433,2.0,32.812,11111222 
TABS,ioos:station:wmo:42050:1,2011-07-03T13:30:00Z,28.8425,-94.2433,2.0,32.8157,11111222 
TABS,ioos:station:wmo:42050:1,2011-07-03T14:00:00Z,28.8425,-94.2433,2.0,32.583,11111222 
TABS,ioos:station:wmo:42050:1,2011-07-03T14:30:00Z,28.8425,-94.2433,2.0,32.4762,11111222 
TABS,ioos:station:wmo:42050:1,2011-07-03T15:00:00Z,28.8425,-94.2433,2.0,32.4644,11111222 
TABS,ioos:station:wmo:42050:1,2011-07-03T15:30:00Z,28.8425,-94.2433,2.0,32.4473,11111222 
TABS,ioos:station:wmo:42050:1,2011-07-03T16:00:00Z,28.8425,-94.2433,2.0,32.4356,11111222 
TABS,ioos:station:wmo:42050:1,2011-07-03T16:30:00Z,28.8425,-94.2433,2.0,32.4448,11111222 
TABS,ioos:station:wmo:42050:1,2011-07-03T17:00:00Z,28.8425,-94.2433,2.0,32.4228,11111222 
TABS,ioos:station:wmo:42050:1,2011-07-03T17:30:00Z,28.8425,-94.2433,2.0,32.439,11111222 
TABS,ioos:station:wmo:42050:1,2011-07-03T18:00:00Z,28.8425,-94.2433,2.0,32.435,11111222 
TABS,ioos:station:wmo:42050:1,2011-07-03T18:30:00Z,28.8425,-94.2433,2.0,32.4186,11111222 
TABS,ioos:station:wmo:42050:1,2011-07-03T19:00:00Z,28.8425,-94.2433,2.0,32.4261,11111222 
TABS,ioos:station:wmo:42050:1,2011-07-03T19:30:00Z,28.8425,-94.2433,2.0,32.439,11111222 
TABS,ioos:station:wmo:42050:1,2011-07-03T20:00:00Z,28.8425,-94.2433,2.0,32.4456,11111222 
TABS,ioos:station:wmo:42050:1,2011-07-03T20:30:00Z,28.8425,-94.2433,2.0,32.4729,11111222 
TABS,ioos:station:wmo:42050:1,2011-07-03T21:00:00Z,28.8425,-94.2433,2.0,32.5086,11111222 
TABS,ioos:station:wmo:42050:1,2011-07-03T21:30:00Z,28.8425,-94.2433,2.0,32.5313,11111222 
TABS,ioos:station:wmo:42050:1,2011-07-03T22:00:00Z,28.8425,-94.2433,2.0,32.5476,11111222 
TABS,ioos:station:wmo:42050:1,2011-07-03T22:30:00Z,28.8425,-94.2433,2.0,32.5444,11111222 
TABS,ioos:station:wmo:42050:1,2011-07-03T23:00:00Z,28.8425,-94.2433,2.0,32.6041,11111222 
TABS,ioos:station:wmo:42050:1,2011-07-03T23:30:00Z,28.8425,-94.2433,2.0,32.6165,11111222 
TABS,ioos:station:wmo:42050:1,2011-07-04T00:00:00Z,28.8425,-94.2433,2.0,32.601,11111222 
TABS,ioos:station:wmo:42050:1,2011-07-04T00:30:00Z,28.8425,-94.2433,2.0,32.5947,11111222 
TABS,ioos:station:wmo:42050:1,2011-07-04T01:00:00Z,28.8425,-94.2433,2.0,32.6132,11111222 
TABS,ioos:station:wmo:42050:1,2011-07-04T01:30:00Z,28.8425,-94.2433,2.0,32.6059,11111222 
TABS,ioos:station:wmo:42050:1,2011-07-04T02:00:00Z,28.8425,-94.2433,2.0,32.6576,11111222 
TABS,ioos:station:wmo:42050:1,2011-07-04T02:30:00Z,28.8425,-94.2433,2.0,32.6827,11111222 
TABS,ioos:station:wmo:42050:1,2011-07-04T03:00:00Z,28.8425,-94.2433,2.0,32.6493,11111222 
TABS,ioos:station:wmo:42050:1,2011-07-04T03:30:00Z,28.8425,-94.2433,2.0,32.5774,11111222 
TABS,ioos:station:wmo:42050:1,2011-07-04T04:00:00Z,28.8425,-94.2433,2.0,32.566,11111222 
TABS,ioos:station:wmo:42050:1,2011-07-04T04:30:00Z,28.8425,-94.2433,2.0,32.5942,11111222 
TABS,ioos:station:wmo:42050:1,2011-07-04T05:00:00Z,28.8425,-94.2433,2.0,32.5712,11111222 
TABS,ioos:station:wmo:42050:1,2011-07-04T05:30:00Z,28.8425,-94.2433,2.0,32.6109,11111222 
TABS,ioos:station:wmo:42050:1,2011-07-04T06:00:00Z,28.8425,-94.2433,2.0,32.5266,11111222 
TABS,ioos:station:wmo:42050:1,2011-07-04T06:30:00Z,28.8425,-94.2433,2.0,32.5187,11111222 
TABS,ioos:station:wmo:42050:1,2011-07-04T07:00:00Z,28.8425,-94.2433,2.0,32.5281,11111222 
TABS,ioos:station:wmo:42050:1,2011-07-04T07:30:00Z,28.8425,-94.2433,2.0,32.5317,11111222 
TABS,ioos:station:wmo:42050:1,2011-07-04T08:00:00Z,28.8425,-94.2433,2.0,32.5466,11111222 
TABS,ioos:station:wmo:42050:1,2011-07-04T08:30:00Z,28.8425,-94.2433,2.0,32.5594,11111222 
TABS,ioos:station:wmo:42050:1,2011-07-04T09:00:00Z,28.8425,-94.2433,2.0,32.571,11111222 
TABS,ioos:station:wmo:42050:1,2011-07-04T09:30:00Z,28.8425,-94.2433,2.0,32.5692,11111222 
TABS,ioos:station:wmo:42050:1,2011-07-04T10:00:00Z,28.8425,-94.2433,2.0,32.5634,11111222 
TABS,ioos:station:wmo:42050:1,2011-07-04T10:30:00Z,28.8425,-94.2433,2.0,32.5683,11111222 
TABS,ioos:station:wmo:42050:1,2011-07-04T11:00:00Z,28.8425,-94.2433,2.0,32.5569,11111222 
TABS,ioos:station:wmo:42050:1,2011-07-04T11:30:00Z,28.8425,-94.2433,2.0,32.5523,11111222 
TABS,ioos:station:wmo:42050:1,2011-07-04T12:00:00Z,28.8425,-94.2433,2.0,32.5556,11111222 
TABS,ioos:station:wmo:42050:1,2011-07-04T12:30:00Z,28.8425,-94.2433,2.0,32.547,11111222 
TABS,ioos:station:wmo:42050:1,2011-07-04T13:00:00Z,28.8425,-94.2433,2.0,32.5583,11111222 
TABS,ioos:station:wmo:42050:1,2011-07-04T13:30:00Z,28.8425,-94.2433,2.0,32.5758,11111222 
TABS,ioos:station:wmo:42050:1,2011-07-04T14:00:00Z,28.8425,-94.2433,2.0,32.5905,11111222 
TABS,ioos:station:wmo:42050:1,2011-07-04T14:30:00Z,28.8425,-94.2433,2.0,32.5857,11111222 
TABS,ioos:station:wmo:42050:1,2011-07-04T15:00:00Z,28.8425,-94.2433,2.0,32.6034,11111222 
TABS,ioos:station:wmo:42050:1,2011-07-04T15:30:00Z,28.8425,-94.2433,2.0,32.6593,11111222 
TABS,ioos:station:wmo:42050:1,2011-07-04T16:00:00Z,28.8425,-94.2433,2.0,32.7018,11111222 
TABS,ioos:station:wmo:42050:1,2011-07-04T16:30:00Z,28.8425,-94.2433,2.0,32.7101,11111222 
TABS,ioos:station:wmo:42050:1,2011-07-04T17:00:00Z,28.8425,-94.2433,2.0,32.7309,11111222 
TABS,ioos:station:wmo:42050:1,2011-07-04T17:30:00Z,28.8425,-94.2433,2.0,32.5219,11111222 
TABS,ioos:station:wmo:42050:1,2011-07-04T18:00:00Z,28.8425,-94.2433,2.0,32.507,11111222 
TABS,ioos:station:wmo:42050:1,2011-07-04T18:30:00Z,28.8425,-94.2433,2.0,32.3128,11111222 
TABS,ioos:station:wmo:42050:1,2011-07-04T19:00:00Z,28.8425,-94.2433,2.0,32.3085,11111222 
TABS,ioos:station:wmo:42050:1,2011-07-04T19:30:00Z,28.8425,-94.2433,2.0,32.2903,11111222 
TABS,ioos:station:wmo:42050:1,2011-07-04T20:00:00Z,28.8425,-94.2433,2.0,32.2985,11111222 
TABS,ioos:station:wmo:42050:1,2011-07-04T20:30:00Z,28.8425,-94.2433,2.0,32.3326,11111222 
TABS,ioos:station:wmo:42050:1,2011-07-04T21:00:00Z,28.8425,-94.2433,2.0,32.3025,11111222 
TABS,ioos:station:wmo:42050:1,2011-07-04T21:30:00Z,28.8425,-94.2433,2.0,32.1993,11111222 
TABS,ioos:station:wmo:42050:1,2011-07-04T22:00:00Z,28.8425,-94.2433,2.0,32.2826,11111222 
TABS,ioos:station:wmo:42050:1,2011-07-04T22:30:00Z,28.8425,-94.2433,2.0,32.1723,11111222 
TABS,ioos:station:wmo:42050:1,2011-07-04T23:00:00Z,28.8425,-94.2433,2.0,32.2222,11111222 
TABS,ioos:station:wmo:42050:1,2011-07-04T23:30:00Z,28.8425,-94.2433,2.0,32.2332,11111222 
TABS,ioos:station:wmo:42050:1,2011-07-05T00:00:00Z,28.8425,-94.2433,2.0,32.2383,11111222 
TABS,ioos:station:wmo:42050:1,2011-07-05T00:30:00Z,28.8425,-94.2433,2.0,32.3427,11111222 
TABS,ioos:station:wmo:42050:1,2011-07-05T01:00:00Z,28.8425,-94.2433,2.0,32.3644,11111222 
TABS,ioos:station:wmo:42050:1,2011-07-05T01:30:00Z,28.8425,-94.2433,2.0,32.3407,11111222 
TABS,ioos:station:wmo:42050:1,2011-07-05T02:00:00Z,28.8425,-94.2433,2.0,32.254,11111222 
TABS,ioos:station:wmo:42050:1,2011-07-05T02:30:00Z,28.8425,-94.2433,2.0,32.2878,11111222 
TABS,ioos:station:wmo:42050:1,2011-07-05T03:00:00Z,28.8425,-94.2433,2.0,32.2766,11111222 
TABS,ioos:station:wmo:42050:1,2011-07-05T03:30:00Z,28.8425,-94.2433,2.0,32.2924,11111222 
TABS,ioos:station:wmo:42050:1,2011-07-05T04:00:00Z,28.8425,-94.2433,2.0,32.2874,11111222 
TABS,ioos:station:wmo:42050:1,2011-07-05T04:30:00Z,28.8425,-94.2433,2.0,32.2585,11111222 
TABS,ioos:station:wmo:42050:1,2011-07-05T05:00:00Z,28.8425,-94.2433,2.0,32.2889,11111222 
TABS,ioos:station:wmo:42050:1,2011-07-05T05:30:00Z,28.8425,-94.2433,2.0,32.2385,11111222 
TABS,ioos:station:wmo:42050:1,2011-07-05T06:00:00Z,28.8425,-94.2433,2.0,32.2841,11111222 
TABS,ioos:station:wmo:42050:1,2011-07-05T06:30:00Z,28.8425,-94.2433,2.0,32.331,11111222 
TABS,ioos:station:wmo:42050:1,2011-07-05T07:00:00Z,28.8425,-94.2433,2.0,32.3359,11111222 
TABS,ioos:station:wmo:42050:1,2011-07-05T07:30:00Z,28.8425,-94.2433,2.0,32.3533,11111222 
TABS,ioos:station:wmo:42050:1,2011-07-05T08:00:00Z,28.8425,-94.2433,2.0,32.3193,11111222 
TABS,ioos:station:wmo:42050:1,2011-07-05T08:30:00Z,28.8425,-94.2433,2.0,32.3381,11111222 
TABS,ioos:station:wmo:42050:1,2011-07-05T09:00:00Z,28.8425,-94.2433,2.0,32.3577,11111222 
TABS,ioos:station:wmo:42050:1,2011-07-05T09:30:00Z,28.8425,-94.2433,2.0,32.3793,11111222 
TABS,ioos:station:wmo:42050:1,2011-07-05T10:00:00Z,28.8425,-94.2433,2.0,32.4403,11111222 
TABS,ioos:station:wmo:42050:1,2011-07-05T10:30:00Z,28.8425,-94.2433,2.0,32.5238,11111222 
TABS,ioos:station:wmo:42050:1,2011-07-05T11:00:00Z,28.8425,-94.2433,2.0,32.4918,11111222 
TABS,ioos:station:wmo:42050:1,2011-07-05T11:30:00Z,28.8425,-94.2433,2.0,32.5049,11111222 
TABS,ioos:station:wmo:42050:1,2011-07-05T12:00:00Z,28.8425,-94.2433,2.0,32.4552,11111222 
TABS,ioos:station:wmo:42050:1,2011-07-05T12:30:00Z,28.8425,-94.2433,2.0,32.4305,11111222 
TABS,ioos:station:wmo:42050:1,2011-07-05T13:00:00Z,28.8425,-94.2433,2.0,32.3871,11111222 
TABS,ioos:station:wmo:42050:1,2011-07-05T13:30:00Z,28.8425,-94.2433,2.0,32.3476,11111222 
TABS,ioos:station:wmo:42050:1,2011-07-05T14:00:00Z,28.8425,-94.2433,2.0,32.2586,11111222 
TABS,ioos:station:wmo:42050:1,2011-07-05T14:30:00Z,28.8425,-94.2433,2.0,32.113,11111222 
TABS,ioos:station:wmo:42050:1,2011-07-05T15:00:00Z,28.8425,-94.2433,2.0,32.0825,11111222 
TABS,ioos:station:wmo:42050:1,2011-07-05T15:30:00Z,28.8425,-94.2433,2.0,31.9624,11111222 
TABS,ioos:station:wmo:42050:1,2011-07-05T16:00:00Z,28.8425,-94.2433,2.0,31.9428,11111222 
TABS,ioos:station:wmo:42050:1,2011-07-05T16:30:00Z,28.8425,-94.2433,2.0,31.9489,11111222 
TABS,ioos:station:wmo:42050:1,2011-07-05T17:00:00Z,28.8425,-94.2433,2.0,31.9183,11111222 
TABS,ioos:station:wmo:42050:1,2011-07-05T17:30:00Z,28.8425,-94.2433,2.0,31.8975,11111222 
TABS,ioos:station:wmo:42050:1,2011-07-05T18:00:00Z,28.8425,-94.2433,2.0,31.8396,11111222 
TABS,ioos:station:wmo:42050:1,2011-07-05T18:30:00Z,28.8425,-94.2433,2.0,31.7719,11111222 
TABS,ioos:station:wmo:42050:1,2011-07-05T19:00:00Z,28.8425,-94.2433,2.0,31.7498,11111222 
TABS,ioos:station:wmo:42050:1,2011-07-05T19:30:00Z,28.8425,-94.2433,2.0,31.7457,11111222 
TABS,ioos:station:wmo:42050:1,2011-07-05T20:00:00Z,28.8425,-94.2433,2.0,31.6941,11111222 
TABS,ioos:station:wmo:42050:1,2011-07-05T20:30:00Z,28.8425,-94.2433,2.0,31.684,11111222 
TABS,ioos:station:wmo:42050:1,2011-07-05T21:00:00Z,28.8425,-94.2433,2.0,31.6712,11111222 
TABS,ioos:station:wmo:42050:1,2011-07-05T21:30:00Z,28.8425,-94.2433,2.0,31.6713,11111222 
TABS,ioos:station:wmo:42050:1,2011-07-05T22:00:00Z,28.8425,-94.2433,2.0,31.6632,11111222 
TABS,ioos:station:wmo:42050:1,2011-07-05T22:30:00Z,28.8425,-94.2433,2.0,31.6563,11111222 
TABS,ioos:station:wmo:42050:1,2011-07-05T23:00:00Z,28.8425,-94.2433,2.0,31.6859,11111222 
TABS,ioos:station:wmo:42050:1,2011-07-05T23:30:00Z,28.8425,-94.2433,2.0,31.6829,11111222 
TABS,ioos:station:wmo:42050:1,2011-07-06T00:00:00Z,28.8425,-94.2433,2.0,31.6983,11111222 
TABS,ioos:station:wmo:42050:1,2011-07-06T00:30:00Z,28.8425,-94.2433,2.0,31.7135,11111222 
TABS,ioos:station:wmo:42050:1,2011-07-06T01:00:00Z,28.8425,-94.2433,2.0,31.7292,11111222 
TABS,ioos:station:wmo:42050:1,2011-07-06T01:30:00Z,28.8425,-94.2433,2.0,31.7523,11111222 
TABS,ioos:station:wmo:42050:1,2011-07-06T02:00:00Z,28.8425,-94.2433,2.0,31.7699,11111222 
TABS,ioos:station:wmo:42050:1,2011-07-06T02:30:00Z,28.8425,-94.2433,2.0,31.8267,11111222 
TABS,ioos:station:wmo:42050:1,2011-07-06T03:00:00Z,28.8425,-94.2433,2.0,31.8951,11111222 
TABS,ioos:station:wmo:42050:1,2011-07-06T03:30:00Z,28.8425,-94.2433,2.0,31.9473,11111222 
TABS,ioos:station:wmo:42050:1,2011-07-06T04:00:00Z,28.8425,-94.2433,2.0,31.9962,11111222 
TABS,ioos:station:wmo:42050:1,2011-07-06T04:30:00Z,28.8425,-94.2433,2.0,32.0758,11111222 
TABS,ioos:station:wmo:42050:1,2011-07-06T05:00:00Z,28.8425,-94.2433,2.0,32.1139,11111222 
TABS,ioos:station:wmo:42050:1,2011-07-06T05:30:00Z,28.8425,-94.2433,2.0,32.1731,11111222 
TABS,ioos:station:wmo:42050:1,2011-07-06T06:00:00Z,28.8425,-94.2433,2.0,32.2462,11111222 
TABS,ioos:station:wmo:42050:1,2011-07-06T06:30:00Z,28.8425,-94.2433,2.0,32.3427,11111222 
TABS,ioos:station:wmo:42050:1,2011-07-06T07:00:00Z,28.8425,-94.2433,2.0,32.4152,11111222 
TABS,ioos:station:wmo:42050:1,2011-07-06T07:30:00Z,28.8425,-94.2433,2.0,32.4511,11111222 
TABS,ioos:station:wmo:42050:1,2011-07-06T08:00:00Z,28.8425,-94.2433,2.0,32.4994,11111222 
TABS,ioos:station:wmo:42050:1,2011-07-06T08:30:00Z,28.8425,-94.2433,2.0,32.5318,11111222 
TABS,ioos:station:wmo:42050:1,2011-07-06T09:00:00Z,28.8425,-94.2433,2.0,32.5586,11111222 
TABS,ioos:station:wmo:42050:1,2011-07-06T09:30:00Z,28.8425,-94.2433,2.0,32.5936,11111222 
TABS,ioos:station:wmo:42050:1,2011-07-06T10:00:00Z,28.8425,-94.2433,2.0,32.6022,11111222 
TABS,ioos:station:wmo:42050:1,2011-07-06T10:30:00Z,28.8425,-94.2433,2.0,32.6016,11111222 
TABS,ioos:station:wmo:42050:1,2011-07-06T11:00:00Z,28.8425,-94.2433,2.0,32.6021,11111222 
TABS,ioos:station:wmo:42050:1,2011-07-06T11:30:00Z,28.8425,-94.2433,2.0,32.6029,11111222 
TABS,ioos:station:wmo:42050:1,2011-07-06T12:00:00Z,28.8425,-94.2433,2.0,32.6004,11111222 
TABS,ioos:station:wmo:42050:1,2011-07-06T12:30:00Z,28.8425,-94.2433,2.0,32.5943,11111222 